loading
DOY 173 | 2024-06-21T04:24:41Z

THOR ABLESTAR DEB, 405

Orbit data source: Space-Track

THOR ABLESTAR DEB, 405 is space debris in LEO originally from a launch on Thu, 29 Jun 1961 UTC launched from the Air Force Eastern Test Range (AFETR). Debris objects in space refer to the collection of defunct objects orbiting the Earth. Examples of debris include non-operational satellites, rocket bodies, and fragments generated from explosions, collisions, or faulty payload assembly.

Loading next visibility...
Loading greatness...
THOR ABLESTAR DEB details
NORAD ID405
COSPAR ID
1961-015EE
Orbit
LEO
Last TLE update1 day ago
Origin
Flag of USUSAF SSD (US)
ManufacturerUnknown
BusUnknown
MotorUnknown
MassWet unknown, Dry mass unknown
Launch date (UTC)
1961-06-29 (63 years ago)
Launch vehicleUnknown
Launch site
Air Force Eastern Test Range (AFETR)
Object type
Payload
Rocket body
Debris
Radar Cross SectionSmall (<0.1 m²)
Predictive object data (real-time)
Latitude39.068°
Longitude-173.7688°
Altitude1,014.404 km
Speed7.35 km/s
Apparent Right ascension04h 21m 47s
Apparent Declination3° 07' 56"
Sunlit
Object is in daylight
Predictive observer data (real-time)
Local Sidereal Time15:23:40
Azimuth339.276° N
Elevation-44.933°
Doppler factor1
Orbital elements
Apogee1,078.137 km
Perigee944.545 km
Semi-major axis7,389.478 km
Eccentricity0.0090394
Inclination66.894°
RAAN60.5176°
Arg. of periapsis316.1967°
True anomaly151.12302°
Mean anomaly150.6198°
Mean motion3.41682 °/min
BSTAR0.00023425
Period105.36 mins
Definitive object data (Epoch: 2024-06-19T22:51:40.068Z)
Latitude61.52291°
Longitude-62.54359°
Altitude1,081.002 km
Speed7.289 km/s
True Right ascension12h 36m 05s
True Declination61° 23' 05"
Sunlit
Object was in daylight at TLE epoch
TLE from 1 day ago
0 THOR ABLESTAR DEB
1   405U 61015EE  24171.95254709  .00000128  00000-0  23425-3 0  9998
2   405  66.8940  60.5176 0090394 316.1967 150.6198 13.66284784133249
Epoch: 2024-06-19T22:51Z
No data available

THOR ABLESTAR DEB Visibility forecast

Observer location: 39.9160978°, -105.1181434, 0m alt.

THOR ABLESTAR DEB is not visible in the next 10 days
Span
Click to sort rows by Start time (UTC) header in descending order
Start Az.
Max El. time (UTC)
Max El. Az.
Max El.
End time (UTC)
End Az.